Date,TemperatureHighF,TemperatureAvgF,TemperatureLowF,DewpointHighF,DewpointAvgF,DewpointLowF,HumidityHigh,HumidityAvg,HumidityLow,PressureMaxIn,PressureMinIn,WindSpeedMaxMPH,WindSpeedAvgMPH,GustSpeedMaxMPH,PrecipitationSumIn
2013-1-1,47.9,42.4,38.0,35.6,29.9,24.8,71,61,50,30.06,29.90,2,0,4,0.00
2013-1-2,41.4,37.4,32.4,30.5,27.4,19.2,75,67,58,30.24,29.99,3,0,4,0.00
2013-1-3,40.0,32.8,25.5,22.3,18.7,16.0,77,56,43,30.27,30.17,3,0,4,0.00
2013-1-4,44.4,34.3,23.9,23.5,19.3,17.0,78,56,38,30.26,30.15,4,0,9,0.00
2013-1-5,49.3,37.4,25.4,31.3,20.1,16.9,75,52,29,30.39,30.20,4,0,6,0.01
2013-1-6,50.6,41.9,31.2,32.7,28.8,25.3,84,61,40,30.21,30.05,5,0,9,0.01
2013-1-7,47.4,38.7,27.4,30.9,26.1,20.8,77,61,45,30.45,30.16,4,0,6,0.00
2013-1-8,50.0,35.4,23.8,33.6,26.4,18.8,84,71,52,30.47,30.38,3,0,5,0.00
2013-1-9,59.0,43.0,28.6,46.7,34.9,23.6,88,74,60,30.41,30.28,2,0,4,0.00
2013-1-10,57.3,47.1,33.9,33.2,29.8,25.6,76,53,34,30.58,30.49,3,0,6,0.00
2013-1-11,43.1,40.3,34.2,40.9,34.5,27.0,92,80,64,30.49,30.11,2,0,3,0.05
2013-1-12,50.9,45.0,41.2,46.8,42.4,39.3,95,91,84,30.19,30.11,2,0,3,0.00
2013-1-13,65.8,54.6,45.9,60.4,52.0,43.4,96,91,82,30.14,29.99,2,0,3,0.01
2013-1-14,62.3,54.7,41.2,60.8,52.0,37.9,95,91,87,30.29,29.99,5,0,6,0.15
2013-1-15,41.1,38.5,37.3,37.8,36.4,35.4,93,92,88,30.34,30.14,4,0,6,0.88
2013-1-16,43.5,39.3,35.7,41.8,37.6,33.8,94,94,93,30.15,29.90,2,0,4,0.35
2013-1-17,44.5,39.0,32.7,43.1,37.2,30.7,95,94,92,30.14,29.98,3,0,5,0.68
2013-1-18,37.9,32.6,27.4,31.2,27.6,24.2,94,83,58,30.52,30.12,2,0,5,0.15
2013-1-19,50.2,37.3,27.8,32.3,27.1,23.2,85,68,47,30.46,30.05,5,0,6,0.11
2013-1-20,58.5,43.4,31.3,34.8,24.9,12.6,78,51,27,30.08,29.89,10,1,16,0.00
2013-1-21,52.4,40.2,26.9,25.4,16.2,3.9,69,39,22,30.09,29.78,7,1,14,0.00
2013-1-22,33.9,24.6,16.6,7.7,-0.9,-6.0,54,32,23,30.32,29.95,6,1,11,0.00
2013-1-23,30.9,21.0,10.6,14.7,2.3,-1.0,70,46,25,30.37,30.14,4,0,6,0.00
2013-1-24,27.5,20.1,12.9,15.8,8.7,0.0,82,64,30,30.57,30.08,9,0,14,0.01
2013-1-25,24.0,18.5,11.2,16.7,9.7,3.3,78,69,48,30.56,30.10,2,0,4,0.00
2013-1-26,37.1,28.6,21.0,23.9,19.7,15.0,81,70,54,30.46,30.10,3,0,5,0.02
2013-1-27,37.5,30.2,22.4,22.8,20.3,16.4,83,68,49,30.62,30.46,4,0,9,0.00
2013-1-28,48.8,38.8,31.3,40.6,32.9,22.2,92,80,68,30.50,30.12,3,0,5,0.26
2013-1-29,72.4,55.2,39.9,54.6,45.4,35.4,92,71,52,30.16,29.98,3,0,5,0.00
2013-1-30,70.1,63.3,57.0,61.5,57.2,50.3,95,81,67,29.98,29.24,7,1,12,0.92
2013-1-31,63.0,46.3,36.9,61.5,29.3,13.2,95,54,33,29.87,29.23,18,3,21,0.21
2013-2-1,30.2,26.1,17.9,15.5,3.6,-1.0,59,38,29,30.41,29.95,14,2,20,0.00
2013-2-2,34.4,25.2,16.1,24.3,13.0,5.3,82,61,36,30.41,30.03,6,0,7,0.00
2013-2-3,40.3,31.4,23.9,27.3,21.8,14.2,86,69,46,30.02,29.84,6,0,10,0.02
2013-2-4,37.0,30.9,21.8,22.3,16.2,11.4,75,55,43,30.14,29.93,11,0,11,0.00
2013-2-5,55.5,41.3,30.1,33.3,26.9,18.7,73,58,39,29.93,29.84,4,0,10,0.00
2013-2-6,53.6,39.7,27.9,30.9,25.8,22.2,83,60,33,30.35,29.93,5,0,9,0.00
2013-2-7,40.4,35.3,27.9,28.4,24.0,20.8,83,64,49,30.44,30.17,2,0,4,0.00
2013-2-8,49.2,39.8,33.0,39.0,31.1,21.7,92,72,49,30.17,29.78,11,1,16,0.10
2013-2-9,47.7,36.9,26.0,22.8,15.5,10.3,64,43,23,30.39,29.98,8,1,12,0.00
2013-2-10,45.0,33.5,19.9,29.3,17.3,12.9,77,53,32,30.51,30.26,2,0,5,0.02
2013-2-11,55.2,45.9,36.0,49.6,40.0,22.5,93,81,28,30.26,29.79,6,0,17,0.06
2013-2-12,57.9,50.3,42.5,32.3,25.3,21.6,64,39,27,30.00,29.83,7,1,12,0.01
2013-2-13,42.6,39.4,34.5,34.2,30.1,26.0,87,70,53,29.93,29.65,3,0,4,0.01
2013-2-14,50.6,37.6,27.3,32.2,26.4,23.2,92,67,34,30.04,29.81,4,0,6,0.00
2013-2-15,60.4,43.4,27.4,38.6,29.6,22.1,87,62,32,30.07,29.89,4,0,10,0.03
2013-2-16,39.3,35.7,29.8,35.9,27.1,13.0,90,72,46,30.02,29.85,5,0,10,0.07
2013-2-17,29.5,26.0,21.6,15.4,8.0,1.0,60,47,32,30.25,29.89,7,1,14,0.00
2013-2-18,46.6,32.8,16.0,20.9,12.1,4.4,76,44,23,30.41,30.21,7,0,7,0.00
2013-2-19,44.8,37.3,29.7,39.9,28.6,18.7,88,72,43,30.20,29.78,5,0,9,0.07
2013-2-20,45.0,37.2,28.6,21.4,14.2,10.9,58,39,28,30.16,29.90,6,1,18,0.00
2013-2-21,44.1,33.2,23.7,17.3,14.9,12.0,70,48,31,30.32,30.15,10,1,12,0.00
2013-2-22,37.3,34.0,31.4,26.0,21.1,16.0,68,59,51,30.37,30.25,2,0,5,0.01
2013-2-23,49.0,41.3,33.5,40.9,36.1,29.4,91,82,73,30.10,29.83,2,0,4,0.01
2013-2-24,58.1,44.5,30.6,42.4,30.5,19.8,93,63,26,30.12,29.82,5,0,13,0.00
2013-2-25,43.5,34.1,24.7,20.9,18.5,15.9,74,54,37,30.25,30.12,3,0,6,0.00
2013-2-26,42.5,34.6,26.4,40.8,29.1,17.5,98,81,65,30.23,29.59,4,0,7,1.04
2013-2-27,57.1,46.3,39.0,44.0,36.5,30.6,95,72,41,29.72,29.57,7,1,11,0.01
2013-2-28,46.6,41.2,36.3,34.1,27.2,23.2,81,59,41,29.78,29.64,6,1,14,0.00
2013-3-1,43.6,37.6,31.3,28.2,24.8,21.5,78,61,49,29.92,29.78,5,0,9,0.00
2013-3-2,38.2,35.2,32.1,22.7,20.5,17.2,65,55,49,29.92,29.84,4,0,11,0.00
2013-3-3,44.5,34.2,25.3,20.7,16.8,12.9,75,50,33,29.96,29.82,7,1,14,0.00
2013-3-4,49.1,34.7,26.2,17.9,12.3,9.2,60,41,20,30.07,29.96,10,1,13,0.00
2013-3-5,49.7,38.3,27.3,32.3,22.7,12.5,85,55,32,30.10,29.75,4,0,6,0.18
2013-3-6,33.0,32.8,32.6,30.4,29.6,28.8,91,88,85,29.74,29.57,0,0,2,0.01
2013-3-8,46.6,41.7,32.3,27.7,25.3,21.6,75,53,44,30.30,30.18,10,2,17,0.20
2013-3-9,58.2,41.0,27.8,27.3,23.6,16.1,83,55,20,30.36,30.27,5,0,9,0.00
2013-3-10,63.2,46.5,28.3,32.2,25.6,22.3,82,49,23,30.33,30.20,4,0,6,0.00
2013-3-11,62.6,49.5,35.2,49.2,38.9,25.1,84,68,41,30.24,29.91,3,0,7,0.01
2013-3-12,67.1,57.3,39.5,59.9,47.5,31.5,95,72,44,29.96,29.70,7,1,13,0.56
2013-3-13,52.1,40.6,30.9,31.7,23.7,13.9,82,54,31,30.12,29.92,15,2,16,0.00
2013-3-14,50.5,38.6,28.8,18.0,14.7,11.4,63,39,22,30.19,30.07,7,1,17,0.00
2013-3-15,58.6,42.9,27.4,32.9,23.4,14.6,69,47,31,30.14,29.82,6,0,14,0.00
2013-3-16,57.0,46.3,40.6,53.8,39.8,31.3,94,78,60,29.88,29.64,2,0,17,0.09
2013-3-17,42.1,37.2,33.4,37.0,33.1,29.6,88,85,82,30.29,29.88,2,0,4,0.09
2013-3-18,33.5,33.0,32.6,31.4,30.3,29.3,92,90,86,30.30,29.92,4,0,5,0.41
2013-3-19,64.3,44.7,32.4,42.3,25.5,3.1,95,59,15,29.99,29.74,13,2,26,0.17
2013-3-20,54.8,44.0,30.6,22.6,12.2,5.3,60,29,17,30.04,29.76,9,1,15,0.00
2013-3-21,39.7,34.4,28.2,25.3,13.7,6.6,72,44,27,29.96,29.76,13,2,16,0.00
2013-3-22,49.9,35.5,22.1,20.9,13.7,8.0,64,42,25,30.03,29.90,7,1,15,0.00
2013-3-23,54.8,38.9,24.3,23.8,19.7,14.9,76,49,23,30.08,29.91,4,0,9,0.00
2013-3-24,40.7,36.8,34.0,22.7,20.9,19.7,61,53,45,30.01,29.76,3,0,6,0.00
2013-3-25,35.6,33.6,31.6,30.6,29.0,27.3,84,83,82,29.74,29.70,0,0,0,0.52
2013-3-26,47.5,38.0,29.1,31.2,26.6,23.3,92,66,41,30.06,29.74,8,1,15,0.16
2013-3-27,51.3,41.3,31.1,26.7,23.7,20.3,76,51,33,30.18,30.05,12,2,19,0.00
2013-3-28,51.7,40.4,28.7,25.8,23.4,20.6,75,53,34,30.28,30.15,14,1,19,0.00
2013-3-29,57.9,43.7,31.7,31.4,27.0,22.9,79,55,28,30.31,30.16,8,0,13,0.00
2013-3-30,63.2,47.1,30.1,33.1,27.1,23.7,81,50,25,30.25,30.09,5,0,10,0.00
2013-3-31,53.7,45.9,39.7,48.1,39.6,29.6,92,79,62,30.10,29.77,2,0,5,0.06
2013-4-1,65.7,52.1,39.0,44.4,35.8,21.8,92,57,32,30.00,29.78,12,2,19,0.00
2013-4-2,54.5,41.9,29.4,22.9,15.8,7.3,65,38,16,30.19,30.01,9,1,15,0.00
2013-4-3,56.1,41.0,25.6,20.7,14.6,7.8,71,38,16,30.39,30.19,10,1,12,0.00
2013-4-4,49.2,36.6,26.3,33.5,18.7,10.2,91,53,22,30.45,30.07,3,0,7,0.25
2013-4-5,65.7,48.3,35.5,42.6,33.3,27.0,93,63,24,30.07,29.85,7,0,11,0.30
2013-4-6,59.0,47.9,35.8,30.1,22.3,15.6,62,38,20,30.33,30.05,5,0,10,0.00
2013-4-7,72.7,55.4,36.8,42.1,34.2,25.1,64,46,31,30.28,30.01,6,0,11,0.00
2013-4-8,82.2,66.0,48.0,49.1,43.9,38.9,72,48,27,30.10,29.95,4,0,7,0.00
2013-4-9,87.6,72.7,56.6,54.8,50.4,47.0,73,48,30,30.10,29.96,5,0,9,0.00
2013-4-10,92.2,75.9,61.3,57.0,53.1,50.2,71,48,27,30.00,29.81,6,0,12,0.00
2013-4-11,86.7,79.3,71.3,60.7,55.1,50.8,58,44,30,29.83,29.72,4,0,12,0.00
2013-4-12,81.0,70.6,62.4,66.5,55.8,37.3,94,64,26,29.73,29.54,8,0,11,0.62
2013-4-13,73.3,61.7,46.6,41.2,35.4,26.6,71,39,22,29.94,29.71,10,1,14,0.00
2013-4-14,75.1,61.7,44.2,42.4,36.0,26.6,67,40,25,30.10,29.95,4,0,9,0.00
2013-4-15,61.7,56.8,51.5,53.3,49.3,39.2,91,77,45,30.27,30.08,4,0,4,0.08
2013-4-16,73.7,62.5,55.3,58.4,54.1,50.2,84,75,57,30.31,30.15,3,0,8,0.00
2013-4-17,82.9,69.3,58.4,62.7,57.3,53.5,88,68,43,30.21,30.09,4,0,6,0.00
2013-4-18,80.8,68.5,60.7,61.8,56.7,53.6,85,68,44,30.18,29.99,8,0,11,0.00
2013-4-19,77.6,68.2,57.5,65.8,59.9,53.9,92,76,62,29.99,29.60,5,0,11,0.62
2013-4-20,63.3,53.6,43.7,54.1,32.5,24.9,89,48,25,30.32,29.74,10,1,13,0.15
2013-4-21,56.1,46.1,35.8,33.4,28.9,25.8,74,53,34,30.58,30.32,6,0,13,0.02
2013-4-22,59.0,46.5,32.1,38.3,32.9,28.1,87,62,40,30.57,30.37,7,1,11,0.01
2013-4-23,62.9,52.6,46.3,45.9,40.5,35.9,85,64,50,30.38,30.12,4,0,11,0.00
2013-4-24,78.7,61.1,43.7,55.1,48.3,40.0,90,66,39,30.14,29.84,6,0,10,0.00
2013-4-25,66.8,56.9,45.4,54.9,36.0,28.5,81,48,26,30.29,29.98,5,0,8,0.01
2013-4-26,68.8,54.6,37.9,41.0,36.1,32.4,85,54,27,30.46,30.30,5,0,9,0.00
2013-4-27,72.5,59.4,45.5,47.0,41.7,38.0,82,55,30,30.41,30.26,4,0,6,0.00
2013-4-28,59.0,55.5,50.7,50.6,44.7,38.5,80,67,55,30.28,30.12,2,0,3,0.03
2013-4-29,63.6,56.4,52.8,57.2,52.2,47.2,93,86,77,30.15,30.00,3,0,5,0.45
2013-5-1,70.8,65.5,57.5,46.7,42.6,37.6,63,44,31,30.40,30.32,4,0,9,0.00
2013-5-2,67.4,56.6,46.9,49.5,45.0,40.5,87,67,40,30.41,30.31,4,0,7,0.00
2013-5-3,69.1,55.0,44.6,51.8,44.4,38.7,93,70,39,30.37,30.25,5,0,10,0.00
2013-5-4,57.5,47.4,41.3,46.6,40.8,36.1,87,78,65,30.32,30.18,4,0,5,0.00
2013-5-5,63.2,53.0,41.0,47.1,41.4,34.3,82,66,50,30.23,30.11,5,0,10,0.00
2013-5-6,60.3,55.5,50.8,58.1,51.4,45.4,93,87,70,30.14,29.96,3,0,11,0.43
2013-5-7,67.9,59.8,55.3,62.9,57.2,52.7,95,92,79,29.98,29.84,4,0,7,1.49
2013-5-8,64.8,57.5,51.8,58.4,54.0,48.0,95,88,71,30.00,29.94,3,0,4,0.01
2013-5-9,76.5,60.9,49.1,61.9,54.1,46.4,98,80,48,30.03,29.94,3,0,6,0.01
2013-5-10,84.5,69.7,53.9,62.9,58.2,52.4,96,71,39,30.03,29.87,1,0,10,0.08
2013-5-11,77.7,67.8,61.4,66.7,61.9,58.6,96,83,58,29.91,29.72,4,0,7,0.02
2013-5-12,68.2,61.4,44.1,58.5,41.7,28.8,86,52,26,30.05,29.74,5,0,13,0.00
2013-5-13,62.1,49.7,37.2,40.6,32.2,25.4,84,55,26,30.19,30.05,4,0,9,0.00
2013-5-14,68.8,54.3,34.5,43.0,36.5,30.1,86,55,32,30.24,30.03,4,0,6,0.00
2013-5-15,86.9,66.4,47.9,64.1,53.1,40.5,83,64,45,30.04,29.74,4,0,6,0.00
2013-5-16,88.0,70.5,62.0,65.7,60.0,53.4,96,73,37,29.95,29.80,4,0,12,0.72
2013-5-17,81.0,70.6,59.6,65.9,60.1,50.6,96,73,36,30.13,29.93,6,0,6,0.01
2013-5-18,67.1,62.8,60.5,61.6,58.8,54.8,93,87,68,30.21,30.11,2,0,3,0.13
2013-5-19,70.6,64.7,60.6,66.5,61.8,58.6,95,90,84,30.19,30.07,3,0,3,0.12
2013-5-20,80.1,70.3,64.7,70.2,65.6,61.2,96,86,66,30.12,29.98,3,0,6,0.02
2013-5-21,82.7,73.0,67.0,72.2,67.4,63.5,94,83,65,30.00,29.88,3,0,4,0.00
2013-5-23,72.9,67.9,63.2,68.9,64.8,61.1,94,90,85,29.83,29.75,6,0,11,0.09
2013-5-24,65.4,60.0,47.6,61.1,48.8,34.6,94,69,43,30.18,29.76,9,1,14,0.01
2013-5-25,70.3,50.9,40.0,40.5,34.7,30.0,76,56,25,30.27,30.12,4,0,11,0.00
2013-5-26,74.4,56.5,41.6,47.0,40.1,32.2,86,59,23,30.26,30.13,2,0,6,0.00
2013-5-27,68.8,58.2,44.3,55.5,47.0,39.1,85,68,39,30.29,30.18,2,0,4,0.00
2013-5-28,85.0,68.3,52.4,68.6,59.9,48.3,93,77,51,30.21,30.06,5,0,12,0.04
2013-5-29,87.6,75.5,63.7,71.5,65.5,61.9,96,74,49,30.15,30.08,4,0,7,0.00
2013-5-30,89.2,76.8,65.5,71.4,64.1,59.4,85,67,43,30.19,30.12,2,0,4,0.00
2013-5-31,90.0,76.7,63.3,68.8,63.7,58.9,88,67,44,30.17,30.04,3,0,6,0.00
2013-6-1,89.8,77.9,65.9,72.0,65.1,60.2,86,66,48,30.06,29.93,2,0,9,0.00
2013-6-2,80.8,73.7,68.2,71.6,66.2,61.7,94,78,66,29.95,29.86,1,0,5,0.04
2013-6-3,80.9,71.9,66.8,70.9,66.7,62.3,96,85,60,29.95,29.81,2,0,5,1.06
2013-6-4,76.5,67.0,56.8,64.6,51.9,40.3,92,62,30,30.14,29.96,4,0,9,0.00
2013-6-5,78.5,68.5,55.5,63.2,57.3,50.0,84,68,50,30.17,30.04,2,0,4,0.00
2013-6-6,73.9,65.7,61.2,65.9,59.4,53.1,92,80,63,30.06,29.82,2,0,7,1.76
2013-6-7,69.8,66.6,64.8,68.6,64.7,62.5,96,94,91,29.82,29.59,2,0,5,0.93
2013-6-8,80.0,70.1,63.6,67.9,63.8,60.9,96,82,54,30.08,29.76,2,0,5,0.05
2013-6-9,80.5,70.2,62.1,72.1,66.3,60.0,95,88,69,30.17,30.06,3,0,4,0.61
2013-6-10,81.0,71.8,66.6,75.5,69.3,65.1,96,92,78,30.10,29.80,2,0,11,1.11
2013-6-11,84.1,73.3,66.4,70.9,66.0,61.7,97,80,52,29.88,29.82,3,0,6,0.02
2013-6-12,90.0,76.8,65.2,75.2,68.4,61.1,94,77,50,29.90,29.78,0,0,2,0.00
2013-6-13,89.3,74.4,67.6,75.1,69.3,56.2,96,85,58,29.80,29.51,4,0,10,0.11
2013-6-14,78.4,69.8,60.7,59.5,55.5,52.6,86,62,43,29.99,29.65,4,0,10,0.00
2013-6-15,83.1,70.4,56.7,62.4,57.9,52.8,89,67,38,30.09,29.99,2,0,5,0.00
2013-6-16,86.2,73.3,62.3,70.9,64.8,57.2,92,76,53,30.03,29.91,1,0,2,0.01
2013-6-17,85.8,73.9,68.0,72.0,66.7,63.6,95,80,56,29.98,29.87,2,0,6,0.03
2013-6-18,73.1,69.5,65.6,70.8,66.3,61.3,95,90,80,29.93,29.79,3,0,7,0.49
2013-6-19,76.5,68.4,61.7,65.5,62.4,58.6,95,82,64,30.15,29.88,3,0,9,0.00
2013-6-20,77.3,70.0,65.0,65.7,61.6,56.1,91,76,57,30.27,30.15,2,0,4,0.00
2013-6-21,81.0,70.2,59.0,62.5,57.1,51.3,87,65,43,30.29,30.21,3,0,4,0.00
2013-6-22,83.4,71.7,60.2,69.2,63.7,56.6,93,77,57,30.25,30.13,2,0,5,0.00
2013-6-23,84.6,75.7,68.9,74.0,69.1,64.7,95,81,62,30.19,30.08,3,0,4,0.14
2013-6-24,88.2,76.9,69.7,76.0,71.0,66.7,96,83,62,30.14,30.04,3,0,4,0.13
2013-6-25,89.5,78.7,69.4,75.5,71.3,68.2,96,80,56,30.05,29.92,0,0,2,0.00
2013-6-26,91.2,76.0,68.5,75.8,69.6,65.4,96,82,54,29.93,29.82,7,0,7,0.97
2013-6-27,80.0,73.0,67.1,75.6,70.1,65.9,97,91,80,29.86,29.65,1,0,4,0.01
2013-6-28,89.5,78.7,70.1,75.5,70.1,65.6,91,76,47,29.67,29.47,1,0,5,0.00
2013-6-29,84.7,75.9,66.4,70.7,65.8,61.6,93,73,49,29.69,29.53,0,0,5,0.00
2013-6-30,81.7,72.9,69.5,74.6,69.3,65.8,95,89,75,29.85,29.69,2,0,3,0.63
2013-7-1,80.7,71.1,69.7,72.8,69.0,67.5,96,93,75,29.91,29.84,1,0,4,0.13
2013-7-2,74.0,73.2,72.0,72.7,71.7,70.4,96,95,92,30.16,30.05,0,0,3,0.31
2013-7-3,75.1,74.3,73.7,73.8,73.0,72.4,96,96,96,30.23,30.21,0,0,0,0.90
2013-7-4,85.8,78.0,72.2,78.1,73.1,70.2,97,86,66,30.26,30.16,2,0,7,0.00
2013-7-5,85.9,77.4,70.9,77.2,72.2,67.8,94,85,72,30.25,30.13,3,0,5,0.00
2013-7-6,87.6,78.6,71.8,77.7,72.3,69.3,95,82,63,30.20,30.09,1,0,4,0.00
2013-7-7,87.8,77.9,71.9,78.3,72.2,69.2,96,84,65,30.13,30.00,3,0,7,0.20
2013-7-8,83.9,74.6,69.5,74.5,70.8,68.3,97,89,66,30.13,30.06,3,0,4,0.14
2013-7-9,84.0,76.9,70.3,77.4,73.0,69.1,97,89,73,30.11,30.01,1,0,3,0.02
2013-7-10,86.6,76.1,72.0,78.8,72.9,70.4,95,90,71,30.03,29.90,1,0,6,0.10
2013-7-11,84.7,75.5,71.7,77.3,71.8,70.4,97,89,67,29.92,29.86,2,0,5,0.17
2013-7-12,73.7,69.9,66.0,71.5,66.7,63.9,95,90,84,30.05,29.88,3,0,7,0.35
2013-7-13,79.7,69.9,65.3,71.2,66.0,62.6,95,88,73,30.17,30.04,2,0,4,0.00
2013-7-14,86.7,81.2,73.7,76.7,73.1,71.3,93,77,64,30.33,30.26,2,0,4,0.04
2013-7-15,91.8,79.9,70.9,77.2,72.5,68.7,96,80,54,30.31,30.21,2,0,4,0.00
2013-7-16,93.4,82.7,72.4,78.2,73.9,69.6,95,77,56,30.24,30.16,4,0,7,0.00
2013-7-17,93.2,82.1,73.6,77.9,74.3,70.1,95,79,53,30.21,30.09,2,0,3,0.00
2013-7-18,92.2,82.4,74.0,79.5,75.3,70.9,96,80,59,30.13,30.01,2,0,2,0.00
2013-7-19,93.6,83.3,74.7,80.5,75.6,71.3,94,79,60,30.04,29.89,0,0,3,0.00
2013-7-20,91.2,80.2,74.3,78.3,73.2,68.7,89,80,63,29.93,29.83,2,0,4,0.00
2013-7-21,90.5,77.5,71.3,77.1,71.1,67.7,95,82,59,29.94,29.87,1,0,7,0.09
2013-7-22,85.4,77.3,71.7,76.7,72.4,69.9,96,86,72,29.94,29.76,2,0,4,0.00
2013-7-23,89.7,80.1,73.0,73.6,71.0,68.8,93,76,54,29.77,29.65,0,0,6,0.00
2013-7-24,86.0,75.8,68.6,73.0,68.1,64.8,91,78,59,29.90,29.68,4,0,6,0.03
2013-7-25,78.5,70.1,63.0,64.7,59.6,54.8,88,71,51,30.04,29.88,3,0,6,0.00
2013-7-26,83.6,70.3,57.7,65.7,59.9,53.5,92,71,46,30.11,30.02,1,0,4,0.00
2013-7-27,82.4,72.5,65.6,72.2,66.2,61.6,90,81,68,30.05,29.92,3,0,6,0.01
2013-7-28,85.8,73.5,68.5,71.3,67.5,62.4,92,83,56,29.98,29.89,2,0,9,0.12
2013-7-29,82.1,71.8,64.5,67.5,62.0,55.7,94,74,46,30.16,29.97,3,0,5,0.01
2013-7-30,81.4,70.5,59.3,65.4,60.3,54.9,91,72,46,30.23,30.14,0,0,2,0.00
2013-7-31,78.5,70.7,64.8,69.7,65.0,60.6,91,83,67,30.15,30.02,0,0,0,0.07
2013-8-1,81.8,71.3,67.8,73.7,67.9,64.8,95,89,66,30.01,29.82,2,0,4,0.33
2013-8-2,84.5,73.9,63.8,70.8,65.7,62.0,96,77,51,29.99,29.87,1,0,5,0.00
2013-8-3,81.5,71.5,65.1,70.2,65.1,61.0,90,81,51,29.97,29.92,0,0,0,0.00
2013-8-4,85.0,72.4,61.7,65.5,59.9,55.0,94,68,38,30.05,29.92,3,0,5,0.00
2013-8-5,80.6,67.8,56.5,62.7,57.2,52.0,90,71,45,30.12,30.01,1,0,5,0.00
2013-8-6,77.0,70.7,65.3,68.5,64.5,60.3,89,81,74,30.04,29.98,3,0,4,0.00
2013-8-7,82.0,75.0,69.5,73.9,69.6,66.3,96,84,72,30.07,29.99,1,0,5,0.40
2013-8-10,74.1,73.5,73.0,69.6,69.5,69.2,89,87,86,30.10,30.05,0,0,4,0.02
2013-8-11,80.6,74.4,69.2,73.0,69.6,67.0,95,86,67,30.12,30.01,3,0,4,0.30
2013-8-12,89.5,77.8,69.6,75.1,70.4,67.2,96,80,52,30.03,29.90,2,0,3,0.00
2013-8-13,83.8,76.5,72.1,74.0,70.9,68.5,94,84,67,29.90,29.75,1,0,5,0.02
2013-8-16,79.3,69.8,57.5,61.9,58.1,53.7,94,68,44,30.21,30.14,1,0,3,0.00
2013-8-17,76.3,66.0,56.0,63.2,58.4,52.4,93,78,58,30.25,30.18,4,0,7,0.01
2013-8-18,66.0,63.7,61.1,63.9,61.3,58.4,96,92,84,30.24,30.18,2,0,6,2.01
2013-8-19,72.4,66.6,61.1,68.6,64.2,59.3,96,92,87,30.20,30.08,0,0,3,0.03
2013-8-20,82.3,73.6,66.9,72.9,68.9,64.4,96,86,67,30.18,30.09,2,0,4,0.00
2013-8-21,84.1,74.3,67.4,75.2,69.6,65.0,96,86,68,30.21,30.09,0,0,4,0.04
2013-8-22,87.5,76.0,70.0,72.9,68.8,64.1,96,80,49,30.09,29.95,1,0,4,0.00
2013-8-23,74.4,67.9,62.2,70.8,65.2,59.8,95,91,85,30.12,29.93,1,0,5,0.70
2013-8-24,80.4,67.5,56.2,67.2,59.3,53.9,96,78,46,30.33,30.12,4,0,5,0.01
2013-8-25,79.9,67.9,58.4,66.1,60.1,55.1,94,78,52,30.41,30.28,2,0,5,0.00
2013-8-26,83.1,70.3,59.2,69.0,61.9,55.3,90,76,51,30.32,30.04,0,0,1,0.00
2013-8-27,86.9,74.3,64.5,76.0,67.6,60.7,91,80,60,30.05,29.90,1,0,3,0.00
2013-8-28,75.3,73.1,70.7,73.1,70.2,66.6,95,91,84,29.95,29.80,3,0,4,0.24
2013-8-29,81.6,75.0,69.8,72.9,70.7,66.4,96,87,71,30.02,29.81,4,0,6,0.00
2013-8-30,81.6,73.9,67.4,73.0,68.8,64.2,96,85,69,30.05,29.90,3,0,4,0.00
2013-8-31,85.8,74.3,68.1,75.8,69.4,65.2,96,85,68,29.93,29.80,2,0,9,0.89
2013-9-1,84.7,73.3,67.5,76.7,69.9,66.0,97,90,68,29.86,29.77,1,0,2,0.01
2013-9-2,86.5,77.2,71.3,75.4,72.0,69.4,96,85,63,29.83,29.74,0,0,1,0.01
2013-9-3,84.9,75.2,68.8,72.2,68.8,64.3,95,82,62,29.95,29.75,0,0,0,0.00
2013-9-4,78.3,69.8,59.8,64.8,61.1,55.3,90,75,56,30.10,29.95,0,0,0,0.00
2013-9-5,83.3,70.6,58.4,65.8,60.7,54.8,95,73,43,30.12,30.01,0,0,0,0.00
2013-9-6,74.3,65.0,57.6,57.4,53.4,49.1,87,68,46,30.25,30.12,4,0,7,0.00
2013-9-7,78.0,65.7,53.6,65.1,58.3,49.8,93,78,59,30.15,29.95,1,0,5,0.00
2013-9-8,84.7,72.8,61.8,70.3,64.4,57.8,94,77,53,30.00,29.87,0,0,4,0.00
2013-9-9,75.5,70.0,65.2,67.4,62.1,55.7,86,76,65,30.20,30.01,4,0,4,0.00
2013-9-10,87.1,75.7,66.4,75.3,69.1,62.2,94,81,63,30.19,30.10,1,0,3,0.00
2013-9-11,90.0,78.8,69.3,75.9,70.9,66.0,94,78,59,30.15,30.01,2,0,5,0.00
2013-9-12,88.2,76.4,68.7,74.9,68.6,64.0,93,78,60,30.01,29.75,2,0,6,0.00
2013-9-13,79.6,70.7,60.3,65.9,57.5,49.5,87,65,41,29.94,29.72,4,0,6,0.00
2013-9-14,68.1,58.7,49.5,51.3,46.7,43.3,83,66,43,30.17,29.94,4,0,7,0.00
2013-9-15,74.4,60.4,46.1,60.0,51.5,41.8,92,74,49,30.25,30.10,2,0,5,0.00
2013-9-16,71.2,62.4,55.5,61.9,56.8,50.7,92,82,67,30.23,30.07,3,0,5,0.00
2013-9-17,67.5,57.9,49.4,52.3,47.9,42.4,89,71,43,30.42,30.23,3,0,7,0.00
2013-9-18,68.9,54.6,42.1,52.2,45.2,37.9,91,72,47,30.35,30.20,3,0,3,0.00
2013-9-19,73.4,61.4,50.2,60.6,53.5,45.5,90,76,59,30.21,30.09,3,0,4,0.00
2013-9-20,75.0,65.4,54.8,64.9,58.8,50.4,93,80,67,30.10,29.96,1,0,5,0.00
2013-9-21,68.7,66.0,63.8,65.7,62.6,59.8,92,89,84,29.96,29.69,3,0,5,0.13
2013-9-22,73.9,63.7,57.0,62.2,57.1,50.2,96,80,55,29.95,29.74,4,0,5,0.00
2013-9-23,66.4,56.4,47.2,52.0,47.4,42.7,92,74,50,30.11,29.95,3,0,5,0.00
2013-9-24,70.4,57.8,47.3,56.6,50.4,43.9,94,78,54,30.12,29.96,0,0,1,0.00
2013-9-25,72.0,60.0,49.4,59.2,52.8,45.8,94,79,49,29.99,29.89,3,0,5,0.00
2013-9-26,73.7,62.7,54.8,59.9,53.9,49.0,88,74,45,30.08,29.91,3,0,6,0.00
2013-9-27,71.9,59.7,50.0,58.7,52.8,46.1,92,79,58,30.23,30.07,4,0,5,0.00
2013-9-28,67.0,60.3,53.1,57.2,53.8,49.9,94,80,63,30.30,30.21,2,0,4,0.00
2013-9-29,71.5,59.9,49.4,56.5,51.6,45.1,95,75,49,30.21,30.06,2,0,4,0.00
2013-9-30,74.0,60.4,49.2,59.6,52.9,45.1,91,77,54,30.10,29.99,3,0,4,0.00
2013-10-1,80.3,65.4,54.7,63.7,56.9,50.3,92,76,44,30.09,30.00,1,0,4,0.00
2013-10-2,81.2,67.0,55.3,63.7,57.3,51.6,95,73,43,30.11,30.02,1,0,5,0.00
2013-10-3,81.6,68.1,57.5,66.3,60.0,53.5,92,77,54,30.12,30.05,1,0,4,0.00
2013-10-4,84.3,66.5,59.8,67.7,59.9,55.9,94,81,51,30.10,30.04,0,0,4,0.00
2013-10-7,73.1,67.0,56.8,68.6,62.7,51.3,93,86,78,30.05,29.78,5,0,7,0.44
2013-10-8,64.9,55.9,47.0,51.1,47.2,42.7,89,74,49,30.28,30.05,7,0,11,0.00
2013-10-9,59.0,54.4,52.2,52.0,48.7,45.9,90,81,73,30.31,30.19,3,0,9,0.14
2013-10-10,59.0,55.3,51.7,57.5,53.2,49.1,95,93,90,30.19,29.98,4,0,7,0.32
2013-10-11,64.3,60.1,56.6,59.7,57.3,54.8,95,91,82,29.99,29.93,2,0,6,0.01
2013-10-12,63.5,61.9,59.6,62.0,60.0,57.5,96,94,92,30.14,29.96,5,0,10,0.04
2013-10-13,62.6,59.8,58.2,60.7,57.7,56.1,95,93,89,30.30,30.13,4,0,9,0.03
2013-10-14,66.8,59.8,53.0,57.2,54.8,48.9,94,84,67,30.33,30.22,4,0,6,0.01
2013-10-15,69.7,58.4,48.6,56.8,51.2,45.4,95,79,49,30.24,30.10,3,0,6,0.00
2013-10-16,70.4,63.7,59.5,61.7,58.1,54.7,90,83,70,30.10,29.93,1,0,4,0.00
2013-10-17,73.0,65.4,60.4,65.9,60.6,55.7,95,85,72,29.93,29.75,2,0,5,0.01
2013-10-18,65.9,56.5,46.5,55.1,45.4,39.5,92,68,39,30.04,29.83,2,0,5,0.00
2013-10-19,58.9,52.3,45.0,53.2,47.6,40.1,92,84,77,30.01,29.81,0,0,0,0.00
2013-10-20,61.7,50.5,39.7,48.1,39.0,33.6,87,68,37,30.13,29.89,3,0,5,0.00
2013-10-21,65.6,50.4,35.7,46.8,40.0,31.4,89,70,42,30.17,29.98,3,0,6,0.00
2013-10-22,70.8,57.3,47.2,52.5,46.6,42.0,88,69,43,29.98,29.80,4,0,7,0.00
2013-10-23,57.6,49.3,41.6,45.0,39.7,33.1,88,71,51,29.95,29.68,4,0,11,0.21
2013-10-24,53.8,43.7,35.3,35.7,31.0,25.4,83,62,40,30.18,29.95,5,0,10,0.00
2013-10-25,55.4,41.1,30.7,31.7,27.3,23.7,81,61,31,30.36,30.17,4,0,10,0.00
2013-10-26,55.1,42.0,28.6,33.9,28.0,23.6,85,60,34,30.35,29.99,2,0,9,0.00
2013-10-27,61.0,48.2,36.4,41.4,35.8,30.6,87,64,42,30.15,30.00,3,0,6,0.00
2013-10-28,64.1,49.0,36.5,44.1,38.4,32.4,88,69,43,30.28,30.14,2,0,4,0.00
2013-10-29,65.0,52.7,43.7,47.2,42.8,38.1,86,71,47,30.39,30.28,3,0,6,0.00
2013-10-30,68.1,56.8,47.9,56.5,50.1,41.9,90,79,64,30.33,30.14,3,0,6,0.03
2013-10-31,69.5,60.7,52.1,59.3,54.2,48.2,94,80,68,30.19,29.80,1,0,7,0.00
2013-11-1,74.1,67.4,58.9,62.9,58.9,53.8,87,75,57,29.80,29.61,5,0,11,0.01
2013-11-2,68.9,60.2,50.8,58.2,45.4,34.0,94,63,32,29.91,29.64,5,0,12,0.01
2013-11-3,59.6,47.8,35.0,39.4,31.2,24.4,84,56,28,30.43,29.91,6,0,10,0.00
2013-11-4,47.2,38.9,32.5,27.8,24.5,20.7,75,58,36,30.64,30.43,5,0,10,0.00
2013-11-5,53.1,44.4,33.2,42.3,33.6,26.4,79,66,48,30.63,30.48,3,0,4,0.00
2013-11-6,67.2,55.3,48.9,51.1,46.0,41.9,84,72,54,30.48,30.10,6,0,7,0.00
2013-11-7,63.9,53.2,44.9,56.3,42.8,26.0,95,70,38,30.11,29.90,7,0,13,0.00
2013-11-8,55.0,42.1,30.5,29.3,24.5,20.0,76,52,28,30.35,30.11,9,0,11,0.00
2013-11-9,55.6,41.2,26.7,29.7,25.7,21.2,82,57,33,30.39,30.10,2,0,6,0.00
2013-11-10,67.0,50.8,37.2,37.1,27.8,22.6,69,44,19,30.28,29.98,7,1,12,0.00
2013-11-11,58.9,45.5,32.1,30.0,26.5,23.5,80,50,28,30.34,30.06,3,0,7,0.00
2013-11-12,47.5,40.9,26.1,34.4,22.2,11.2,61,47,34,30.44,29.97,6,0,13,0.00
2013-11-13,43.4,32.6,24.8,18.0,15.5,13.1,68,51,30,30.54,30.43,5,0,12,0.00
2013-11-14,59.6,38.6,23.5,22.3,18.3,15.7,75,49,19,30.43,30.26,2,0,4,0.00
2013-11-15,59.0,46.4,32.8,41.2,26.5,20.3,79,48,27,30.31,30.20,2,0,3,0.01
2013-11-16,53.5,50.0,46.8,50.2,46.5,40.5,92,88,78,30.32,30.23,0,0,1,0.00
2013-11-17,59.7,55.4,51.6,58.5,53.8,48.8,96,94,90,30.24,29.78,0,0,0,0.10
2013-11-18,66.5,59.0,51.1,59.9,39.8,22.0,96,56,23,29.95,29.73,0,0,0,0.11
2013-11-19,51.8,43.0,35.2,29.1,25.5,22.1,69,51,31,30.38,29.96,0,0,0,0.00
2013-11-20,46.1,37.6,32.2,25.6,23.9,22.3,74,59,40,30.56,30.38,0,0,0,0.00
2013-11-21,49.2,41.7,31.7,38.4,33.5,24.6,83,73,62,30.57,30.41,0,0,0,0.00
2013-11-22,66.1,53.3,42.9,54.1,44.9,38.0,83,74,63,30.42,30.04,0,0,0,0.00
2013-11-23,55.0,48.2,36.0,38.5,21.9,13.0,78,37,22,30.21,30.02,11,1,14,0.01
2013-11-24,35.6,27.7,19.3,15.6,4.3,0.0,59,37,25,30.57,30.21,10,2,20,0.00
2013-11-25,35.7,26.9,16.3,13.2,9.4,6.0,70,49,30,30.60,30.38,2,0,6,0.00
2013-11-26,39.3,34.8,33.1,37.4,26.9,13.1,93,75,42,30.39,29.61,3,0,6,0.80
2013-11-27,41.0,38.4,30.1,40.7,31.6,13.2,99,78,47,30.12,29.51,12,1,16,0.43
2013-11-28,39.0,30.5,21.5,19.1,15.9,11.5,76,55,37,30.49,30.12,6,0,9,0.00
2013-11-29,42.8,31.0,20.8,23.0,18.8,15.0,82,62,41,30.73,30.47,4,0,7,0.00
2013-11-30,36.8,27.0,22.4,21.5,18.1,16.0,78,69,48,30.73,30.40,3,0,5,0.00
2013-12-1,43.4,30.3,21.4,31.4,22.7,16.4,86,74,54,30.39,30.03,0,0,1,0.00
2013-12-2,46.8,41.7,37.1,34.9,32.7,30.3,79,71,58,30.03,29.87,1,0,3,0.00
2013-12-3,56.0,43.6,34.4,40.0,35.0,29.4,92,73,53,30.01,29.88,2,0,3,0.00
2013-12-4,59.0,50.6,41.8,49.7,44.2,36.0,87,79,69,30.08,30.00,2,0,4,0.00
2013-12-5,64.3,59.8,54.1,60.6,55.4,49.4,93,86,80,30.08,29.94,4,0,4,0.00
2013-12-6,65.8,53.9,41.0,63.7,50.9,38.2,94,90,78,30.14,29.89,5,0,10,0.93
2013-12-7,43.0,38.3,29.4,38.1,32.2,23.7,90,79,66,30.54,30.10,4,0,9,0.23
2013-12-8,32.3,30.0,28.4,29.9,24.5,20.8,92,80,65,30.58,30.31,4,0,6,0.11
2013-12-9,38.1,34.7,32.3,36.5,32.8,29.9,94,93,91,30.33,30.05,1,0,2,0.66
2013-12-10,38.1,34.3,28.8,36.0,31.0,21.4,94,88,67,30.26,30.00,2,0,5,0.45
2013-12-11,41.8,31.3,23.4,24.3,21.0,18.1,81,67,43,30.43,30.26,5,0,6,0.02
2013-12-12,36.9,29.8,24.7,21.5,14.5,5.9,80,55,27,30.45,30.27,3,0,5,0.00
2013-12-13,46.8,34.8,26.0,18.5,14.2,9.1,59,44,29,30.34,30.24,4,0,7,0.00
2013-12-15,49.7,41.8,31.6,40.4,28.2,22.4,94,60,45,30.00,29.73,4,1,12,0.37
2013-12-16,43.7,35.0,29.0,28.9,25.7,21.9,82,70,51,30.18,29.98,3,0,5,0.00
2013-12-17,47.9,36.2,27.0,38.0,29.0,22.1,84,75,60,30.15,29.92,5,0,11,0.01
2013-12-18,35.2,29.7,26.9,29.2,25.0,22.5,85,83,66,30.22,30.01,2,0,4,0.00
2013-12-19,59.7,49.9,30.1,30.6,28.0,23.7,78,44,31,30.22,30.13,3,0,4,0.00
2013-12-20,61.0,50.0,39.4,41.4,33.7,26.3,62,54,44,30.17,30.03,3,0,5,0.00
2013-12-21,68.3,59.7,50.1,58.7,50.1,39.7,83,71,59,30.07,29.94,4,0,7,0.00
2013-12-22,70.6,65.0,60.8,62.7,59.3,56.3,91,82,72,30.02,29.88,5,0,13,0.13
2013-12-23,62.8,56.5,39.5,61.3,52.0,30.8,95,86,62,30.22,29.92,5,0,13,0.53
2013-12-24,42.0,33.6,23.9,30.9,20.8,6.4,86,61,38,30.50,30.20,10,1,13,0.00
2013-12-25,32.1,24.5,16.2,13.6,10.9,8.3,76,57,41,30.60,30.41,2,0,5,0.00
2013-12-26,48.0,31.1,19.7,24.8,17.8,12.3,76,60,33,30.41,30.24,4,0,7,0.00
2013-12-27,49.6,35.6,25.3,25.0,19.8,18.0,79,55,30,30.47,30.35,2,0,5,0.00
2013-12-28,56.8,40.5,25.5,29.2,23.5,18.4,78,53,29,30.39,30.15,3,0,6,0.00
2013-12-29,49.8,44.0,39.1,47.7,39.3,28.1,94,84,54,30.15,29.61,4,0,6,1.42
2013-12-30,49.0,40.5,35.3,39.3,32.8,26.1,91,75,53,30.18,29.85,2,0,5,0.00
2013-12-31,46.7,36.1,27.9,30.1,22.4,15.7,84,60,34,30.35,30.16,7,1,16,0.00
2014-1-1,48.5,34.8,24.4,25.5,21.0,16.8,78,58,38,30.42,30.14,3,0,5,0.00
2014-1-2,33.3,30.2,28.0,29.7,23.9,21.0,88,77,70,30.14,29.63,1,0,2,0.01